Location: Byhalia Creek
(34.8270°N, 89.8040°W)
Time: 20:00:23
(UTC+00:00)

Cosmos 2219 Rocket - Pass Details

Date: 22 April 2026
Orbit: 826 x 846 km, 71.0° (Epoch: 21 May)

Event Time Altitude Azimuth Distance (km) Brightness Sun altitude
Rises 09:48:22 0° 332° (NNW) 3,391 5.4 -17.9°
Reaches altitude 10° 09:50:52 10° 327° (NNW) 2,457 4.6 -17.5°
Maximum altitude 09:56:16 49° 254° (WSW) 1,073 2.3 -16.5°
Drops below altitude 10° 10:01:40 10° 181° (S) 2,453 4.3 -15.5°
Sets 10:04:10 0° 175° (S) 3,386 5.1 -15.1°
